JOE121 KCLE-KCMH

Flight info

Callsign JOE121
Flight time 0h 27m
Altitude 14000
Route LBRON WAAHU BUGZZ CBUSS2
Aircraft A20N/M-SDE2E3FGHIRWXY/LB1

Departure

Time 2026-05-09 00:12
Airport Cleveland Hopkins International Airport (KCLE)

Arrival

Time 2026-05-09 00:39
Airport John Glenn Columbus International Airport (KCMH)
Time Latitude Longitude Altitude Speed Heading
2026-05-08 23:55 41.41201 -81.84188 799 ft 0 kts 185°
2026-05-09 00:07 41.41215 -81.84186 799 ft 0 kts 185°
2026-05-09 00:07 41.41267 -81.84180 799 ft 5 kts 185°
2026-05-09 00:07 41.41297 -81.84176 799 ft 3 kts 158°
2026-05-09 00:07 41.41304 -81.84201 798 ft 5 kts 77°
2026-05-09 00:08 41.41299 -81.84230 798 ft 0 kts 47°
2026-05-09 00:08 41.41316 -81.84205 798 ft 12 kts 49°
2026-05-09 00:09 41.41390 -81.84112 798 ft 10 kts 36°
2026-05-09 00:09 41.41410 -81.84103 799 ft 0 kts
2026-05-09 00:10 41.41411 -81.84103 799 ft 2 kts
2026-05-09 00:10 41.41446 -81.84127 798 ft 0 kts 319°
2026-05-09 00:10 41.41472 -81.84157 798 ft 10 kts 319°
2026-05-09 00:11 41.41506 -81.84241 797 ft 12 kts 261°
2026-05-09 00:11 41.41485 -81.84286 796 ft 0 kts 229°
2026-05-09 00:11 41.41484 -81.84288 796 ft 3 kts 229°
2026-05-09 00:11 41.41286 -81.84601 795 ft 88 kts 230°
2026-05-09 00:12 41.40723 -81.85483 796 ft 158 kts 228°
2026-05-09 00:12 41.39925 -81.86717 1135 ft 189 kts 228°
2026-05-09 00:12 41.39004 -81.88139 1464 ft 217 kts 228°
2026-05-09 00:12 41.37956 -81.89756 1838 ft 239 kts 228°
2026-05-09 00:13 41.36686 -81.91106 2164 ft 237 kts 204°
2026-05-09 00:13 41.35045 -81.91445 2466 ft 245 kts 182°
2026-05-09 00:13 41.33328 -81.91350 3265 ft 248 kts 182°
2026-05-09 00:13 41.31596 -81.91185 4357 ft 251 kts 182°
2026-05-09 00:14 41.29831 -81.90960 5262 ft 259 kts 181°
2026-05-09 00:14 41.28049 -81.90732 5699 ft 264 kts 181°
2026-05-09 00:14 41.26183 -81.90497 5963 ft 266 kts 181°
2026-05-09 00:14 41.24324 -81.90265 6630 ft 270 kts 182°
2026-05-09 00:15 41.22457 -81.90032 7714 ft 269 kts 182°
2026-05-09 00:15 41.20572 -81.89814 8698 ft 272 kts 185°
2026-05-09 00:15 41.18764 -81.90271 9647 ft 263 kts 211°
2026-05-09 00:15 41.17329 -81.91731 10449 ft 262 kts 231°
2026-05-09 00:16 41.16065 -81.93601 10896 ft 284 kts 232°
2026-05-09 00:16 41.14702 -81.95646 11221 ft 307 kts 232°
2026-05-09 00:16 41.13238 -81.97861 11480 ft 331 kts 232°
2026-05-09 00:16 41.11641 -82.00202 11703 ft 355 kts 226°
2026-05-09 00:17 41.09522 -82.02083 11965 ft 380 kts 211°
2026-05-09 00:17 41.07076 -82.03514 12568 ft 388 kts 207°
2026-05-09 00:17 41.04554 -82.04834 13356 ft 392 kts 206°
2026-05-09 00:17 41.01996 -82.06168 13813 ft 398 kts 206°
2026-05-09 00:18 40.99428 -82.07537 13953 ft 398 kts 207°
2026-05-09 00:18 40.96884 -82.08994 14012 ft 397 kts 211°
2026-05-09 00:18 40.94542 -82.10770 14015 ft 389 kts 218°
2026-05-09 00:18 40.92428 -82.12814 14013 ft 365 kts 222°
2026-05-09 00:19 40.90475 -82.14795 14017 ft 343 kts 222°
2026-05-09 00:19 40.88601 -82.16693 14018 ft 341 kts 222°
2026-05-09 00:19 40.86708 -82.18614 14008 ft 343 kts 222°
2026-05-09 00:19 40.84813 -82.20528 14013 ft 343 kts 223°
2026-05-09 00:20 40.82915 -82.22439 14010 ft 343 kts 223°
2026-05-09 00:20 40.81019 -82.24346 13983 ft 341 kts 222°
2026-05-09 00:20 40.79144 -82.26227 13462 ft 338 kts 222°
2026-05-09 00:20 40.77280 -82.28097 12741 ft 333 kts 222°
2026-05-09 00:21 40.75456 -82.29929 11965 ft 327 kts 221°
2026-05-09 00:21 40.73658 -82.31734 11188 ft 322 kts 221°
2026-05-09 00:21 40.71892 -82.33506 10493 ft 315 kts 220°
2026-05-09 00:21 40.70167 -82.35235 10156 ft 312 kts 220°
2026-05-09 00:22 40.68427 -82.36980 10021 ft 315 kts 220°
2026-05-09 00:22 40.66687 -82.38721 10008 ft 314 kts 220°
2026-05-09 00:22 40.64941 -82.40460 10000 ft 317 kts 219°
2026-05-09 00:22 40.63062 -82.42003 10002 ft 319 kts 212°
2026-05-09 00:23 40.61019 -82.43197 10006 ft 323 kts 205°
2026-05-09 00:23 40.58913 -82.44221 10008 ft 323 kts 205°
2026-05-09 00:23 40.56827 -82.45242 10006 ft 312 kts 204°
2026-05-09 00:23 40.54791 -82.46028 10008 ft 296 kts 200°
2026-05-09 00:24 40.52858 -82.46711 10007 ft 279 kts 201°
2026-05-09 00:24 40.51000 -82.47379 10006 ft 279 kts 201°
2026-05-09 00:24 40.49124 -82.48065 10005 ft 279 kts 201°
2026-05-09 00:24 40.47276 -82.48738 10005 ft 279 kts 201°
2026-05-09 00:25 40.45400 -82.49418 10005 ft 280 kts 201°
2026-05-09 00:25 40.43521 -82.50097 10006 ft 279 kts 201°
2026-05-09 00:25 40.41650 -82.50771 10003 ft 277 kts 201°
2026-05-09 00:25 40.39841 -82.51416 9997 ft 261 kts 201°
2026-05-09 00:26 40.38161 -82.52009 9998 ft 237 kts 202°
2026-05-09 00:26 40.36645 -82.52542 9998 ft 217 kts 202°
2026-05-09 00:26 40.35152 -82.53089 10005 ft 225 kts 202°
2026-05-09 00:26 40.33655 -82.53637 10002 ft 222 kts 202°
2026-05-09 00:27 40.32161 -82.54179 9994 ft 223 kts 202°
2026-05-09 00:27 40.30674 -82.54714 9813 ft 220 kts 202°
2026-05-09 00:27 40.29208 -82.55235 9432 ft 218 kts 202°
2026-05-09 00:27 40.27745 -82.55756 8957 ft 217 kts 202°
2026-05-09 00:28 40.26293 -82.56273 8481 ft 216 kts 201°
2026-05-09 00:28 40.24844 -82.56789 8017 ft 215 kts 201°
2026-05-09 00:28 40.23407 -82.57300 7556 ft 213 kts 201°
2026-05-09 00:28 40.21995 -82.57801 7161 ft 210 kts 201°
2026-05-09 00:29 40.20591 -82.58300 6740 ft 208 kts 201°
2026-05-09 00:29 40.19197 -82.58796 6319 ft 207 kts 201°
2026-05-09 00:29 40.17809 -82.59288 5871 ft 207 kts 199°
2026-05-09 00:29 40.16344 -82.59288 5400 ft 218 kts 174°
2026-05-09 00:30 40.14870 -82.58790 4968 ft 218 kts 172°
2026-05-09 00:30 40.13408 -82.58275 4559 ft 217 kts 172°
2026-05-09 00:30 40.11948 -82.57770 4141 ft 215 kts 173°
2026-05-09 00:30 40.10550 -82.57286 4003 ft 199 kts 173°
2026-05-09 00:31 40.09240 -82.56819 4011 ft 200 kts 172°
2026-05-09 00:31 40.07901 -82.56360 3996 ft 197 kts 172°
2026-05-09 00:31 40.06575 -82.55908 3995 ft 196 kts 173°
2026-05-09 00:31 40.05256 -82.55442 3998 ft 197 kts 172°
2026-05-09 00:32 40.03936 -82.54974 3992 ft 197 kts 172°
2026-05-09 00:32 40.02605 -82.54518 3992 ft 197 kts 173°
2026-05-09 00:32 40.01279 -82.54066 3983 ft 197 kts 172°
2026-05-09 00:32 39.99949 -82.53637 3995 ft 198 kts 175°
2026-05-09 00:33 39.98665 -82.53812 4001 ft 183 kts 215°
2026-05-09 00:33 39.97942 -82.55102 3996 ft 183 kts 261°
2026-05-09 00:33 39.98117 -82.56767 3996 ft 189 kts 282°
2026-05-09 00:33 39.98420 -82.58361 3993 ft 173 kts 276°
2026-05-09 00:34 39.98577 -82.59819 4011 ft 158 kts 271°
2026-05-09 00:34 39.98659 -82.61274 3992 ft 162 kts 270°
2026-05-09 00:34 39.98740 -82.62736 3992 ft 162 kts 271°
2026-05-09 00:34 39.98823 -82.64202 3993 ft 163 kts 271°
2026-05-09 00:35 39.98906 -82.65678 3995 ft 163 kts 271°
2026-05-09 00:35 39.98989 -82.67159 3907 ft 164 kts 271°
2026-05-09 00:35 39.99073 -82.68640 3697 ft 163 kts 270°
2026-05-09 00:35 39.99156 -82.70112 3482 ft 162 kts 271°
2026-05-09 00:36 39.99239 -82.71589 3268 ft 164 kts 271°
2026-05-09 00:36 39.99322 -82.73068 3050 ft 163 kts 271°
2026-05-09 00:36 39.99405 -82.74547 2832 ft 165 kts 271°
2026-05-09 00:36 39.99490 -82.76048 2607 ft 165 kts 271°
2026-05-09 00:37 39.99574 -82.77522 2384 ft 158 kts 272°
2026-05-09 00:37 39.99652 -82.78898 2181 ft 146 kts 273°
2026-05-09 00:37 39.99721 -82.80128 1994 ft 135 kts 272°
2026-05-09 00:37 39.99789 -82.81351 1837 ft 137 kts 272°
2026-05-09 00:38 39.99859 -82.82586 1645 ft 135 kts 273°
2026-05-09 00:38 39.99929 -82.83818 1456 ft 138 kts 273°
2026-05-09 00:38 39.99999 -82.85077 1277 ft 139 kts 274°
2026-05-09 00:38 40.00068 -82.86322 1093 ft 135 kts 273°
2026-05-09 00:39 40.00136 -82.87534 892 ft 134 kts 273°
2026-05-09 00:39 40.00201 -82.88662 823 ft 90 kts 274°
2026-05-09 00:39 40.00215 -82.88989 822 ft 18 kts 252°
2026-05-09 00:39 40.00138 -82.89014 821 ft 0 kts 137°
2026-05-09 00:40 40.00139 -82.89015 821 ft 0 kts 137°
2026-05-09 00:41 40.00122 -82.88950 821 ft 17 kts 97°
2026-05-09 00:41 40.00110 -82.88733 824 ft 27 kts 94°
2026-05-09 00:41 40.00022 -82.88685 822 ft 18 kts 240°
2026-05-09 00:42 39.99964 -82.88712 821 ft 0 kts 158°